Volver al catálogo

YAM-13

ActivoComunicacionesSSO
NORAD 68993·PAYLOAD·🇺🇸 United States

Lanzado May 3, 2026 desde Vandenberg Space Force Base

Loading…

Próximos Pases (próximas 24 horas)

TLE

ActualizadoSource: Space-Track

Época: Sep 14, 2026, 23:13 UTC

1 68993U 26100P   26257.96776063  .00001064  00000-0  11477-3 0  9994
2 68993  97.7760 153.9126 0002126  89.7161 270.4301 14.90457253 20079

Sigue YAM-13 en tiempo real con AllMySat

Download on the App Store